Time,TemperatureF,DewpointF,PressureIn,WindDirection,WindDirectionDegrees,WindSpeedMPH,WindSpeedGustMPH,Humidity,HourlyPrecipIn,Conditions,Clouds,dailyrainin,SoftwareType,DateUTC
2013-06-12 00:00:00,65.3,19.0,29.59,North,359,0.0,-999.0,17,-99.99,,,0.00,weatherlink.com 1.10,2013-06-12 06:00:00,
2013-06-12 00:15:00,65.6,18.0,29.61,NE,43,3.0,-999.0,16,-99.99,,,0.00,weatherlink.com 1.10,2013-06-12 06:15:00,
2013-06-12 00:30:00,65.8,18.0,29.59,NE,47,2.0,-999.0,16,-99.99,,,0.00,weatherlink.com 1.10,2013-06-12 06:30:00,
2013-06-12 00:45:00,65.3,18.0,29.59,NE,48,3.0,-999.0,16,-99.99,,,0.00,weatherlink.com 1.10,2013-06-12 06:45:00,
2013-06-12 01:01:00,63.4,18.0,29.59,NE,34,0.0,-999.0,17,-99.99,,,0.00,weatherlink.com 1.10,2013-06-12 07:01:00,
2013-06-12 01:16:00,59.6,19.0,29.59,NE,34,0.0,-999.0,21,-99.99,,,0.00,weatherlink.com 1.10,2013-06-12 07:16:00,
2013-06-12 01:31:00,62.7,17.0,29.62,NE,34,0.0,-999.0,17,-99.99,,,0.00,weatherlink.com 1.10,2013-06-12 07:31:00,
2013-06-12 01:46:00,60.4,19.0,29.59,NNE,30,0.0,-999.0,20,-99.99,,,0.00,weatherlink.com 1.10,2013-06-12 07:46:00,
2013-06-12 02:01:00,58.3,19.0,29.61,NNE,16,1.0,-999.0,22,-99.99,,,0.00,weatherlink.com 1.10,2013-06-12 08:01:00,
2013-06-12 02:16:00,57.3,20.0,29.62,NNE,16,2.0,-999.0,23,-99.99,,,0.00,weatherlink.com 1.10,2013-06-12 08:16:00,
2013-06-12 02:31:00,57.5,20.0,29.62,NNE,16,1.0,-999.0,23,-99.99,,,0.00,weatherlink.com 1.10,2013-06-12 08:31:00,
2013-06-12 02:46:00,57.3,20.0,29.62,NNE,16,3.0,-999.0,23,-99.99,,,0.00,weatherlink.com 1.10,2013-06-12 08:46:00,
2013-06-12 03:01:00,57.3,21.0,29.62,North,1,0.0,-999.0,24,-99.99,,,0.00,weatherlink.com 1.10,2013-06-12 09:01:00,
2013-06-12 03:16:00,56.9,21.0,29.61,North,1,1.0,-999.0,25,-99.99,,,0.00,weatherlink.com 1.10,2013-06-12 09:16:00,
2013-06-12 03:31:00,56.3,21.0,29.62,North,1,5.0,-999.0,25,-99.99,,,0.00,weatherlink.com 1.10,2013-06-12 09:31:00,
2013-06-12 03:46:00,56.0,20.0,29.63,North,1,1.0,-999.0,25,-99.99,,,0.00,weatherlink.com 1.10,2013-06-12 09:46:00,
2013-06-12 04:01:00,55.4,21.0,29.63,North,1,0.0,-999.0,26,-99.99,,,0.00,weatherlink.com 1.10,2013-06-12 10:01:00,
2013-06-12 04:16:00,54.2,21.0,29.63,North,1,0.0,-999.0,27,-99.99,,,0.00,weatherlink.com 1.10,2013-06-12 10:16:00,
2013-06-12 04:31:00,53.1,21.0,29.65,North,1,2.0,-999.0,28,-99.99,,,0.00,weatherlink.com 1.10,2013-06-12 10:31:00,
2013-06-12 04:46:00,51.6,19.0,29.65,North,1,0.0,-999.0,28,-99.99,,,0.00,weatherlink.com 1.10,2013-06-12 10:46:00,
2013-06-12 05:01:00,51.0,21.0,29.68,North,1,0.0,-999.0,31,-99.99,,,0.00,weatherlink.com 1.10,2013-06-12 11:01:00,
2013-06-12 05:16:00,50.4,21.0,29.67,North,1,0.0,-999.0,31,-99.99,,,0.00,weatherlink.com 1.10,2013-06-12 11:16:00,
2013-06-12 05:31:00,49.2,20.0,29.70,North,1,0.0,-999.0,32,-99.99,,,0.00,weatherlink.com 1.10,2013-06-12 11:31:00,
2013-06-12 05:47:00,49.1,19.0,29.70,North,1,0.0,-999.0,30,-99.99,,,0.00,weatherlink.com 1.10,2013-06-12 11:47:00,
2013-06-12 06:03:00,48.0,19.0,29.71,North,1,0.0,-999.0,32,-99.99,,,0.00,weatherlink.com 1.10,2013-06-12 12:03:00,
2013-06-12 06:16:00,50.5,17.0,29.69,North,1,6.0,-999.0,27,-99.99,,,0.00,weatherlink.com 1.10,2013-06-12 12:16:00,
2013-06-12 06:34:00,53.8,20.0,29.70,North,1,3.0,-999.0,27,-99.99,,,0.00,weatherlink.com 1.10,2013-06-12 12:34:00,
2013-06-12 06:48:00,55.0,20.0,29.69,NNE,23,5.0,-999.0,26,-99.99,,,0.00,weatherlink.com 1.10,2013-06-12 12:48:00,
2013-06-12 07:02:00,56.2,20.0,29.69,NNE,15,3.0,-999.0,24,-99.99,,,0.00,weatherlink.com 1.10,2013-06-12 13:02:00,
2013-06-12 07:18:00,58.9,22.0,29.68,NNE,16,3.0,-999.0,24,-99.99,,,0.00,weatherlink.com 1.10,2013-06-12 13:18:00,
2013-06-12 07:32:00,62.0,24.0,29.69,NNE,20,0.0,-999.0,23,-99.99,,,0.00,weatherlink.com 1.10,2013-06-12 13:32:00,
2013-06-12 07:47:00,63.9,26.0,29.68,North,11,0.0,-999.0,24,-99.99,,,0.00,weatherlink.com 1.10,2013-06-12 13:47:00,
2013-06-12 08:03:00,66.1,28.0,29.67,NNE,14,0.0,-999.0,24,-99.99,,,0.00,weatherlink.com 1.10,2013-06-12 14:03:00,
2013-06-12 08:18:00,69.3,26.0,29.66,NNE,15,0.0,-999.0,20,-99.99,,,0.00,weatherlink.com 1.10,2013-06-12 14:18:00,
2013-06-12 08:33:00,70.3,27.0,29.70,NNE,15,0.0,-999.0,20,-99.99,,,0.00,weatherlink.com 1.10,2013-06-12 14:33:00,
2013-06-12 08:48:00,72.5,27.0,29.70,NNE,15,0.0,-999.0,18,-99.99,,,0.00,weatherlink.com 1.10,2013-06-12 14:48:00,
2013-06-12 09:04:00,73.9,34.0,29.68,NNE,15,2.0,-999.0,23,-99.99,,,0.00,weatherlink.com 1.10,2013-06-12 15:04:00,
2013-06-12 09:19:00,76.8,24.0,29.68,NNE,15,0.0,-999.0,14,-99.99,,,0.00,weatherlink.com 1.10,2013-06-12 15:19:00,
2013-06-12 09:33:00,79.9,27.0,29.69,ENE,75,0.0,-999.0,14,-99.99,,,0.00,weatherlink.com 1.10,2013-06-12 15:33:00,
2013-06-12 09:48:00,80.5,27.0,29.68,ENE,75,0.0,-999.0,14,-99.99,,,0.00,weatherlink.com 1.10,2013-06-12 15:48:00,
2013-06-12 10:04:00,79.9,27.0,29.69,ESE,111,4.0,-999.0,14,-99.99,,,0.00,weatherlink.com 1.10,2013-06-12 16:04:00,
2013-06-12 10:19:00,79.8,26.0,29.70,South,186,1.0,-999.0,14,-99.99,,,0.00,weatherlink.com 1.10,2013-06-12 16:19:00,
2013-06-12 10:35:00,80.1,28.0,29.72,South,186,6.0,-999.0,15,-99.99,,,0.00,weatherlink.com 1.10,2013-06-12 16:35:00,
2013-06-12 10:49:00,80.7,23.0,29.71,South,187,4.0,-999.0,12,-99.99,,,0.00,weatherlink.com 1.10,2013-06-12 16:49:00,
2013-06-12 11:05:00,82.2,25.0,29.71,South,187,0.0,-999.0,12,-99.99,,,0.00,weatherlink.com 1.10,2013-06-12 17:05:00,
2013-06-12 11:19:00,83.4,26.0,29.70,South,187,5.0,-999.0,12,-99.99,,,0.00,weatherlink.com 1.10,2013-06-12 17:19:00,
2013-06-12 11:35:00,83.8,24.0,29.69,South,188,5.0,-999.0,11,-99.99,,,0.00,weatherlink.com 1.10,2013-06-12 17:35:00,
2013-06-12 11:50:00,85.7,25.0,29.69,SSW,200,4.0,-999.0,11,-99.99,,,0.00,weatherlink.com 1.10,2013-06-12 17:50:00,
2013-06-12 12:04:00,85.5,25.0,29.69,SSW,212,3.0,-999.0,11,-99.99,,,0.00,weatherlink.com 1.10,2013-06-12 18:04:00,
2013-06-12 12:20:00,86.7,24.0,29.68,SSW,212,0.0,-999.0,10,-99.99,,,0.00,weatherlink.com 1.10,2013-06-12 18:20:00,
2013-06-12 12:35:00,88.0,25.0,29.70,SSW,212,1.0,-999.0,10,-99.99,,,0.00,weatherlink.com 1.10,2013-06-12 18:35:00,
2013-06-12 12:50:00,88.4,23.0,29.69,West,262,0.0,-999.0,9,-99.99,,,0.00,weatherlink.com 1.10,2013-06-12 18:50:00,
2013-06-12 13:05:00,89.9,21.0,29.68,WNW,284,8.0,-999.0,8,-99.99,,,0.00,weatherlink.com 1.10,2013-06-12 19:05:00,
2013-06-12 13:21:00,89.9,18.0,29.68,SW,226,8.0,-999.0,7,-99.99,,,0.00,weatherlink.com 1.10,2013-06-12 19:21:00,
2013-06-12 13:36:00,90.7,18.0,29.68,West,276,3.0,-999.0,7,-99.99,,,0.00,weatherlink.com 1.10,2013-06-12 19:36:00,
2013-06-12 13:51:00,92.7,23.0,29.68,WNW,295,11.0,-999.0,8,-99.99,,,0.00,weatherlink.com 1.10,2013-06-12 19:51:00,
2013-06-12 14:06:00,92.1,16.0,29.67,WSW,244,7.0,-999.0,6,-99.99,,,0.00,weatherlink.com 1.10,2013-06-12 20:06:00,
2013-06-12 14:20:00,91.4,15.0,29.67,WSW,238,13.0,-999.0,6,-99.99,,,0.00,weatherlink.com 1.10,2013-06-12 20:20:00,
2013-06-12 14:35:00,91.2,15.0,29.66,West,278,7.0,-999.0,6,-99.99,,,0.00,weatherlink.com 1.10,2013-06-12 20:35:00,
2013-06-12 14:51:00,90.7,15.0,29.66,SW,226,4.0,-999.0,6,-99.99,,,0.00,weatherlink.com 1.10,2013-06-12 20:51:00,
2013-06-12 15:06:00,90.7,18.0,29.67,South,191,8.0,-999.0,7,-99.99,,,0.00,weatherlink.com 1.10,2013-06-12 21:06:00,
2013-06-12 15:22:00,89.7,18.0,29.66,SSW,213,9.0,-999.0,7,-99.99,,,0.00,weatherlink.com 1.10,2013-06-12 21:22:00,
2013-06-12 15:36:00,88.8,17.0,29.69,WSW,238,4.0,-999.0,7,-99.99,,,0.00,weatherlink.com 1.10,2013-06-12 21:36:00,
2013-06-12 16:06:00,92.1,20.0,29.66,WNW,282,8.0,-999.0,7,-99.99,,,0.00,weatherlink.com 1.10,2013-06-12 22:06:00,
2013-06-12 16:22:00,91.4,19.0,29.66,SW,228,2.0,-999.0,7,-99.99,,,0.00,weatherlink.com 1.10,2013-06-12 22:22:00,
2013-06-12 16:37:00,92.7,20.0,29.67,WNW,295,6.0,-999.0,7,-99.99,,,0.00,weatherlink.com 1.10,2013-06-12 22:37:00,
2013-06-12 16:51:00,93.4,20.0,29.67,SSW,200,4.0,-999.0,7,-99.99,,,0.00,weatherlink.com 1.10,2013-06-12 22:51:00,
2013-06-12 17:07:00,91.6,19.0,29.66,SW,229,0.0,-999.0,7,-99.99,,,0.00,weatherlink.com 1.10,2013-06-12 23:07:00,
2013-06-12 17:22:00,89.7,18.0,29.67,West,273,7.0,-999.0,7,-99.99,,,0.00,weatherlink.com 1.10,2013-06-12 23:22:00,
2013-06-12 17:37:00,91.0,19.0,29.67,SW,216,4.0,-999.0,7,-99.99,,,0.00,weatherlink.com 1.10,2013-06-12 23:37:00,
2013-06-12 17:52:00,91.4,19.0,29.64,South,191,1.0,-999.0,7,-99.99,,,0.00,weatherlink.com 1.10,2013-06-12 23:52:00,
2013-06-12 18:08:00,92.9,20.0,29.64,WSW,240,0.0,-999.0,7,-99.99,,,0.00,weatherlink.com 1.10,2013-06-13 00:08:00,
2013-06-12 18:22:00,92.1,20.0,29.64,ENE,62,0.0,-999.0,7,-99.99,,,0.00,weatherlink.com 1.10,2013-06-13 00:22:00,
2013-06-12 18:37:00,90.7,18.0,29.59,NNE,22,0.0,-999.0,7,-99.99,,,0.00,weatherlink.com 1.10,2013-06-13 00:37:00,
2013-06-12 18:53:00,89.9,24.0,29.60,NE,46,1.0,-999.0,9,-99.99,,,0.00,weatherlink.com 1.10,2013-06-13 00:53:00,
2013-06-12 19:07:00,88.0,22.0,29.61,NNE,29,3.0,-999.0,9,-99.99,,,0.00,weatherlink.com 1.10,2013-06-13 01:07:00,
2013-06-12 19:22:00,86.7,24.0,29.61,NNE,16,3.0,-999.0,10,-99.99,,,0.00,weatherlink.com 1.10,2013-06-13 01:22:00,
2013-06-12 19:37:00,86.1,23.0,29.56,NNE,16,0.0,-999.0,10,-99.99,,,0.00,weatherlink.com 1.10,2013-06-13 01:37:00,
2013-06-12 19:52:00,85.3,23.0,29.57,NNE,23,0.0,-999.0,10,-99.99,,,0.00,weatherlink.com 1.10,2013-06-13 01:52:00,
2013-06-12 20:07:00,84.1,22.0,29.57,NNE,20,1.0,-999.0,10,-99.99,,,0.00,weatherlink.com 1.10,2013-06-13 02:07:00,
2013-06-12 20:22:00,82.6,21.0,29.58,NNE,20,0.0,-999.0,10,-99.99,,,0.00,weatherlink.com 1.10,2013-06-13 02:22:00,
2013-06-12 20:37:00,80.9,19.0,29.55,NNE,20,0.0,-999.0,10,-99.99,,,0.00,weatherlink.com 1.10,2013-06-13 02:37:00,
2013-06-12 20:52:00,76.3,24.0,29.56,NNE,20,1.0,-999.0,14,-99.99,,,0.00,weatherlink.com 1.10,2013-06-13 02:52:00,
2013-06-12 21:07:00,73.2,26.0,29.59,NNE,20,1.0,-999.0,17,-99.99,,,0.00,weatherlink.com 1.10,2013-06-13 03:07:00,
2013-06-12 21:22:00,71.8,20.0,29.61,NNE,20,1.0,-999.0,14,-99.99,,,0.00,weatherlink.com 1.10,2013-06-13 03:22:00,
2013-06-12 21:37:00,71.5,23.0,29.59,NNE,20,0.0,-999.0,16,-99.99,,,0.00,weatherlink.com 1.10,2013-06-13 03:37:00,
2013-06-12 21:52:00,68.8,23.0,29.61,NNE,20,3.0,-999.0,18,-99.99,,,0.00,weatherlink.com 1.10,2013-06-13 03:52:00,
2013-06-12 22:07:00,68.8,23.0,29.60,NNE,20,0.0,-999.0,18,-99.99,,,0.00,weatherlink.com 1.10,2013-06-13 04:07:00,
2013-06-12 22:22:00,65.5,23.0,29.62,NNE,20,2.0,-999.0,20,-99.99,,,0.00,weatherlink.com 1.10,2013-06-13 04:22:00,
2013-06-12 22:37:00,66.0,24.0,29.61,NNE,20,0.0,-999.0,20,-99.99,,,0.00,weatherlink.com 1.10,2013-06-13 04:37:00,
2013-06-12 22:52:00,67.3,22.0,29.60,NNE,21,2.0,-999.0,18,-99.99,,,0.00,weatherlink.com 1.10,2013-06-13 04:52:00,
2013-06-12 23:07:00,68.6,19.0,29.61,NNE,30,1.0,-999.0,15,-99.99,,,0.00,weatherlink.com 1.10,2013-06-13 05:07:00,
2013-06-12 23:22:00,68.1,20.0,29.60,NNE,20,0.0,-999.0,16,-99.99,,,0.00,weatherlink.com 1.10,2013-06-13 05:22:00,
2013-06-12 23:37:00,67.8,18.0,29.58,ENE,60,4.0,-999.0,15,-99.99,,,0.00,weatherlink.com 1.10,2013-06-13 05:37:00,
2013-06-12 23:52:00,66.8,20.0,29.59,NE,55,2.0,-999.0,17,-99.99,,,0.00,weatherlink.com 1.10,2013-06-13 05:52:00,